• Join FlightAware (Why Join?)
  • Login
  • US Flag 
08:30PM EST


 

Airport Tracker/Info


-or-


 

Live Flight TrackerFlight Track Log ✈ WJA431 ✈ 17-Aug-2013 ✈ CYQB - CYYZ

Flight Track Log - Related Links

Times and Time Zones

All times are in EDT time to prevent confusion due to time zone crossing. See the WJA431 flight status page for this flight to view local times or setup timezone preferences in your user account.

Time Position Orientation Groundspeed Altitude Reporting Facility
EDT Latitude Longitude Course Direction KTS MPH feet Rate Location/Type
06:32AM 46.7667 -71.3833 250° West 150 173 600  Level Montreal Center
06:33AM 46.7333 -71.4333 226° Southwest 190 219 2,500 2,200 Climbing Montreal Center
06:34AM 46.6833 -71.4833 214° Southwest 230 265 5,000 2,750 Climbing Montreal Center
06:35AM 46.7167 -71.6167 290° West 260 299 8,000 2,900 Climbing Montreal Center
06:36AM 46.7167 -71.7000 270° West 280 322 10,800 2,900 Climbing Montreal Center
06:37AM 46.6063 -72.1335 260° West  Level FlightAware Approximate
06:37AM 46.7000 -71.8333 260° West 330 380 13,800  Level Montreal Center
06:38AM 46.5763 -72.2787 250° West  Level FlightAware Approximate
06:38AM 46.6667 -71.9833 252° West 340 391 17,700  Level Montreal Center
06:39AM 46.6333 -72.1000 247° West 350 403 20,600 3,000 Climbing Montreal Center
06:40AM 46.6000 -72.2500 252° West 370 426 23,700 2,700 Climbing Montreal Center
06:41AM 46.5667 -72.4000 252° West 380 437 26,000 2,350 Climbing Montreal Center
06:42AM 46.5500 -72.5833 263° West 390 449 28,400 2,150 Climbing Montreal Center
06:43AM 46.5000 -72.7333 244° Southwest 410 472 30,300 1,800 Climbing Montreal Center
06:44AM 46.4667 -72.8667 250° West 420 483 32,000 1,750 Climbing Montreal Center
06:45AM 46.4167 -73.0500 248° West 430 495 33,800 2,050 Climbing Montreal Center
06:46AM 46.4000 -73.2000 261° West 420 483 36,100 2,000 Climbing Montreal Center
06:47AM 46.3667 -73.3667 254° West 410 472 37,800 1,300 Climbing Montreal Center
06:48AM 46.3167 -73.5167 244° Southwest 410 472 38,700 1,000 Climbing Montreal Center
06:49AM 46.2833 -73.6833 254° West 420 483 39,800 650 Climbing Montreal Center
06:50AM 46.2667 -73.8333 261° West 410 472 40,000 100 Climbing Montreal Center
06:51AM 46.2167 -73.9833 244° Southwest 410 472 40,000  Level Montreal Center
06:52AM 46.1667 -74.1500 247° West 420 483 40,000  Level Montreal Center
06:53AM 46.1000 -74.3000 237° Southwest 410 472 40,000  Level Montreal Center
06:54AM 46.0500 -74.4500 244° Southwest 410 472 40,000  Level Montreal Center
06:55AM 46.0000 -74.6000 244° Southwest 410 472 40,000  Level Montreal Center
06:56AM 45.9333 -74.7333 234° Southwest 410 472 40,000  Level Montreal Center
07:02AM 45.6570 -75.5680 234° Southwest 420 483 40,000  Level FlightAware
07:03AM 45.6270 -75.6470 242° Southwest 419 482 40,000  Level FlightAware
07:05AM 45.5160 -75.9440 242° Southwest 411 473 40,000  Level FlightAware
07:05AM 45.4880 -76.0210 243° Southwest 410 472 40,000  Level FlightAware
07:06AM 45.4550 -76.1060 241° Southwest 410 472 40,000  Level FlightAware
07:06AM 45.4260 -76.1820 241° Southwest 409 471 40,000  Level FlightAware
07:07AM 45.3667 -76.2667 241° Southwest 410 472 40,000  Level Toronto Center
07:08AM 45.3167 -76.4000 242° Southwest 410 472 40,000  Level Toronto Center
07:09AM 45.2500 -76.5500 238° Southwest 410 472 40,000  Level Toronto Center
07:10AM 45.2167 -76.7000 253° West 410 472 40,000  Level Toronto Center
07:11AM 45.1500 -76.8500 238° Southwest 410 472 40,000  Level Toronto Center
07:12AM 45.0833 -76.9667 231° Southwest 420 483 40,000  Level Toronto Center
07:13AM 45.0333 -77.1333 247° West 420 483 40,000  Level Toronto Center
07:14AM 44.9667 -77.2500 231° Southwest 410 472 40,000  Level Toronto Center
07:15AM 44.9333 -77.4000 253° West 410 472 40,000  Level Toronto Center
07:16AM 44.8667 -77.5333 235° Southwest 410 472 40,000  Level Toronto Center
07:17AM 44.8000 -77.6833 238° Southwest 410 472 40,000 -1,100 Level Toronto Center
07:18AM 44.7500 -77.8167 242° Southwest 400 460 37,800 -2,200 Descending Toronto Center
07:19AM 44.7000 -77.9500 242° Southwest 400 460 35,600 -2,200 Descending Toronto Center
07:20AM 44.6333 -78.0833 235° Southwest 410 472 33,400 -2,050 Descending Toronto Center
07:21AM 44.5667 -78.2333 238° Southwest 420 483 31,500 -2,000 Descending Toronto Center
07:22AM 44.5167 -78.3667 242° Southwest 410 472 29,400 -2,000 Descending Toronto Center
07:23AM 44.4667 -78.4833 239° Southwest 390 449 27,500 -1,950 Descending Toronto Center
07:24AM 44.4167 -78.6333 245° Southwest 380 437 25,500 -1,900 Descending Toronto Center
07:25AM 44.3667 -78.7500 239° Southwest 370 426 23,700 -1,750 Descending Toronto Center
07:26AM 44.3167 -78.8667 239° Southwest 360 414 22,000 -1,800 Descending Toronto Center
07:27AM 44.2667 -78.9833 239° Southwest 350 403 20,100 -1,673 Descending Toronto Center
07:33AM 43.8830 -79.4350 239° Southwest 296 341 10,900 -1,470 Descending FlightAware
07:36AM 43.7390 -79.7370 237° Southwest 246 283 6,800 -1,172 Descending FlightAware
07:36AM 43.7310 -79.7490 227° Southwest 242 278 6,700 -1,000 Descending FlightAware
07:36AM 43.7250 -79.7580 227° Southwest 241 277 6,500 -1,200 Descending FlightAware
07:36AM 43.7230 -79.7600 216° Southwest 241 277 6,500 -1,000 Level FlightAware
07:37AM 43.7160 -79.7700 226° Southwest 241 277 6,300 -1,333 Descending FlightAware
07:37AM 43.7090 -79.7800 226° Southwest 241 277 6,100 -1,125 Descending FlightAware
07:37AM 43.7030 -79.7890 227° Southwest 236 272 6,000 -1,125 Descending FlightAware
07:37AM 43.6970 -79.7980 227° Southwest 234 269 5,800 -1,091 Descending FlightAware
07:37AM 43.6960 -79.8000 235° Southwest 234 269 5,800 -1,091 Level FlightAware
07:37AM 43.6900 -79.8080 224° Southwest 234 269 5,600 -1,875 Descending FlightAware
07:37AM 43.6840 -79.8180 230° Southwest 234 269 5,300 -1,765 Descending FlightAware
07:38AM 43.6770 -79.8270 223° Southwest 234 269 5,100 -1,846 Descending FlightAware
07:38AM 43.6740 -79.8320 230° Southwest 234 269 4,900 -2,000 Descending FlightAware
07:38AM 43.6680 -79.8410 227° Southwest 234 269 4,700 -1,875 Descending FlightAware
07:38AM 43.6610 -79.8500 223° Southwest 234 269 4,400 -2,000 Descending FlightAware
07:38AM 43.6560 -79.8570 225° Southwest 235 270 4,200 -1,636 Descending FlightAware
07:38AM 43.6530 -79.8610 224° Southwest 235 270 4,100 -1,636 Descending FlightAware
07:38AM 43.6480 -79.8690 229° Southwest 235 270 3,900 -1,875 Descending FlightAware
07:38AM 43.6410 -79.8790 226° Southwest 235 270 3,600 -1,600 Descending FlightAware
07:38AM 43.6370 -79.8850 227° Southwest 235 270 3,500 -1,500 Descending FlightAware
07:39AM 43.6320 -79.8900 216° Southwest 235 270 3,300 -1,714 Descending FlightAware
07:39AM 43.6240 -79.8960 208° Southwest 230 265 3,100 -750 Descending FlightAware
07:39AM 43.6150 -79.8980 189° South 224 258 3,100 -414 Level FlightAware
07:39AM 43.5970 -79.8890 160° South 208 239 2,900 -585 Descending FlightAware
07:39AM 43.5820 -79.8720 141° Southeast 202 232 2,700 -333 Descending FlightAware
07:40AM 43.5750 -79.8540 118° Southeast 200 230 2,700  Level FlightAware
07:40AM 43.5740 -79.8480 103° East 199 229 2,700  Level FlightAware
07:40AM 43.5800 -79.8180 75° East 201 231 2,700 -136 Level FlightAware
07:41AM 43.5870 -79.7950 67° East 195 224 2,600 -563 Descending FlightAware
07:41AM 43.5930 -79.7810 59° Northeast 194 223 2,400 -938 Descending FlightAware
07:41AM 43.6050 -79.7640 46° Northeast 189 217 2,100 -800 Descending FlightAware
07:41AM 43.6200 -79.7430 45° Northeast 175 201 1,800 -857 Descending FlightAware
07:42AM 43.6290 -79.7300 46° Northeast 161 185 1,500 -882 Descending FlightAware
07:42AM 43.6360 -79.7190 49° Northeast 152 175 1,300 -682 Descending FlightAware
07:43AM 43.6480 -79.7020 46° Northeast 139 160 1,000 -638 Descending FlightAware
07:43AM 43.6570 -79.6890 46° Northeast 133 153 800 -750 Descending FlightAware
07:43AM 43.6650 -79.6770 47° Northeast 130 150 500 -600 Descending FlightAware
07:44AM 43.6720 -79.6680 43° Northeast 130 150 400 -128 Descending FlightAware
07:44AM 43.6810 -79.6540 48° Northeast 130 150 400  Level FlightAware